This demonstration page uses our WeatherBlox Daily Observations layout. Learn more.

Left ArrowRight Arrow

Hourly Observations for May 19, 2018

Temp ( °F °C ) Dew Point ( °F °C ) Humidity (%) Winds ( mph kmh ) Pressure ( in mb ) Visibility ( mi km ) Precip ( " mm )
12:00 am 00:00 Mostly Cloudy with Light Rain 70 21.1 67 19.4 90 90 E 9 15 29.88 1012 10 16 0.00 0.03
12:14 am 00:14 Mostly Cloudy 70 21.1 67 19.4 90 90 VRB 6 9 29.88 1012 10 16 0.00 0.03
12:53 am 00:53 Cloudy 70 21.1 68 20 93 93 ESE 6 9 29.87 1012 10 16 0.00 0.03
1:15 am 01:15 Cloudy 70 21.1 68 20 93 93 VRB 5 7 29.88 1012 10 16 0.00 0.00
1:53 am 01:53 Mostly Cloudy 70 21.1 68 20 93 93 VRB 3 6 29.88 1012 10 16 0.00 0.00
2:46 am 02:46 Mostly Cloudy 69 20.6 67 19.4 93 93 Calm 29.88 1012 10 16 0.00 0.00
2:53 am 02:53 Mostly Cloudy 70 21.1 66 18.9 87 87 Calm 29.88 1012 10 16 0.00 0.00
3:53 am 03:53 Clear 68 20 66 18.9 93 93 Calm 29.88 1012 10 16 0.00 0.00
4:53 am 04:53 Mostly Clear with Mist and Fog 65 18.3 64 17.8 97 97 Calm 29.88 1012 4 6 0.00 0.00
5:53 am 05:53 Mostly Cloudy 67 19.4 65 18.3 93 93 Calm 29.90 1012 10 16 0.00 0.00
6:53 am 06:53 Cloudy 67 19.4 65 18.3 93 93 Calm 29.91 1013 10 16 0.00 0.00
7:40 am 07:40 Cloudy 68 20 65 18.3 90 90 Calm 29.94 1014 10 16 0.00 0.00
7:53 am 07:53 Cloudy 68 20 66 18.9 93 93 Calm 29.92 1013 10 16 0.00 0.00
8:09 am 08:09 Cloudy 68 20 65 18.3 90 90 Calm 29.94 1014 10 16 0.00 0.03
8:16 am 08:16 Cloudy with Light Rain 68 20 66 18.9 93 93 Calm 29.94 1014 10 16 0.00 0.03
8:24 am 08:24 Cloudy with Light Rain 68 20 66 18.9 93 93 Calm 29.94 1014 10 16 0.00 0.03
8:42 am 08:42 Cloudy 68 20 66 18.9 93 93 Calm 29.94 1014 10 16 0.00 0.03
8:49 am 08:49 Cloudy 68 20 66 19 94 94 Calm 29.94 1014 10 16 0.00 0.03
8:53 am 08:53 Cloudy 68 20 66 18.9 93 93 VRB 3 6 29.92 1013 10 16 0.00 0.03
9:49 am 09:49 Cloudy with Light Rain 68 20 66 19 94 94 S 5 7 29.94 1014 2 3 0.05 1.27
9:53 am 09:53 Cloudy with Heavy Rain 68 20 66 18.9 93 93 SSE 5 7 29.93 1013 1 2 0.09 2.29
10:03 am 10:03 Cloudy with Rain 68 20 66 18.9 93 93 Calm 29.94 1014 2 3 0.03 0.76
10:08 am 10:08 Cloudy with Light Rain 68 20 66 18.9 93 93 VRB 3 6 29.94 1014 4 6 0.03 0.76
10:53 am 10:53 Cloudy 70 21.1 67 19.4 90 90 VRB 3 6 29.92 1013 7 11 0.03 0.76
11:01 am 11:01 Cloudy 71 21.7 68 20 90 90 VRB 5 7 29.94 1014 7 11 0.00 0.00
11:16 am 11:16 Cloudy 72 22.2 69 20.6 91 91 SSW 6 9 29.94 1014 8 13 0.00 0.00
11:53 am 11:53 Cloudy 72 22.2 68 20 87 87 SW 5 7 29.92 1013 9 14 0.00 0.00
12:00 pm 12:00 Cloudy 72 22.2 68 20 87 87 SSW 6 9 29.94 1014 9 14 0.00 0.00
12:30 pm 12:30 Cloudy 73 22.8 67 19.4 81 81 VRB 6 9 29.94 1014 10 16 0.00 0.00
12:53 pm 12:53 Cloudy 74 23.3 68 20 82 82 VRB 6 9 29.91 1013 10 16 0.00 0.00
1:46 pm 13:46 Mostly Cloudy 76 24.4 70 21.1 82 82 VRB 6 9 29.91 1013 10 16 0.00 0.03
1:53 pm 13:53 Cloudy with Nearby Thunderstorms 75 23.9 69 20.6 82 82 WSW 9 15 29.90 1013 10 16 0.00 0.03
2:15 pm 14:15 Mostly Cloudy 75 23.9 68 20 79 79 SW 7 11 29.91 1013 10 16 0.00 0.00
2:27 pm 14:27 Partly Cloudy 75 23.9 67 19.4 76 76 VRB 6 9 29.91 1013 10 16 0.00 0.00
2:53 pm 14:53 Sunny 78 25.6 69 20.6 74 74 SSW 10 17 29.89 1012 10 16 0.00 0.00
3:53 pm 15:53 Partly Cloudy 79 26.1 66 18.9 65 65 SW 12 19 29.88 1012 10 16 0.00 0.03
4:53 pm 16:53 Mostly Cloudy with Light Rain 75 23.9 68 20 79 79 WNW 10 17 29.89 1012 10 16 0.00 0.03
5:03 pm 17:03 Mostly Cloudy with Nearby Thunderstorms 74 23.3 68 20 82 82 W 8 13 29.91 1013 10 16 0.00 0.03
5:18 pm 17:18 Mostly Cloudy with Light Rain 74 23.3 66 18.9 76 76 W 9 15 29.91 1013 10 16 0.00 0.03
5:53 pm 17:53 Sunny 77 25 67 19.4 71 71 WSW 8 13 29.88 1012 10 16 0.00 0.03
6:53 pm 18:53 Mostly Sunny 76 24.4 66 18.9 72 72 WSW 9 15 29.90 1012 10 16 0.00 0.00
7:53 pm 19:53 Mostly Sunny 75 23.9 67 19.4 76 76 WSW 7 11 29.91 1013 10 16 0.00 0.00
8:53 pm 20:53 Clear 73 22.8 67 19.4 81 81 SW 3 6 29.94 1014 10 16 0.00 0.00
9:53 pm 21:53 Clear 69 20.6 67 19.4 93 93 SSW 3 6 29.96 1015 10 16 0.00 0.00
10:53 pm 22:53 Clear 67 19.4 65 18.3 93 93 Calm 29.98 1015 10 16 0.00 0.00
11:53 pm 23:53 Clear 67 19.4 65 18.3 93 93 Calm 29.99 1016 9 14 0.00 0.00

Powered by AerisWeather